Погода в Кумане

Венесуэла     10°27′31″N   64°10′26″W
темп.,
°C
ветер,
м/с
пор.,
м/с
влажн.,
%
обл.,
%
осадки,
мм/ч
давл.,
гПа
погр.,
м
17 мая, пн
пн1723:00+26всв81279100 0.0 1013452
02:00+25в61076100 0.0 1012353
05:00+25в4674100 0.0 1012298
08:00+26в3469100 0.0 1014254
11:00+27з116790 0.0 1015336
14:00+27ссв2373100 0.0 1012412
17:00+27всв81079100 0.1 1010364
20:00+26всв710857 0.2 1012353
18 мая, вт
вт1823:00+26всв58845 0.4 1014277
02:00+25в468430 0.6 1012262
05:00+25вюв24800 0.2 1012166
08:00+26юв11745 0.3 1014157
11:00+27зсз22735 0.0 1014321
14:00+28св23724 0.2 1011332
17:00+27св812772 0.0 1010316
20:00+27всв712810 0.2 1012311
19 мая, ср
ср1923:00+26в46781 0.0 1013170
02:00+26вюв247720 0.0 1012151
05:00+26юв12775 0.0 101290
08:00+26зсз01755 0.0 1014135
11:00+26сз5379100 0.0 1014441
14:00+28с2373100 0.0 1011287
17:00+28св687641 0.0 1009233
20:00+27всв610782 0.0 1011243
20 мая, чт
чт2023:00+27всв610761 0.0 1013290
02:00+26в4675100 0.0 1011181
05:00+26юв12762 0.0 1012121
08:00+26ююз12790 0.1 1014180
11:00+27зсз43782 0.0 1014415
14:00+27ссз33745 0.0 1011355
17:00+28св911775 0.0 1010441
20:00+27в610815 0.0 1011257
21 мая, пт
пт2123:00+27в710760 0.0 1012312
02:00+26в46750 0.0 1011203
05:00+26юв12740 0.0 1012127
08:00+26зюз02754 0.0 1013162
11:00+27з43799 0.0 1014384
14:00+27сз337789 0.1 1011316
17:00+27ссв117637 0.3 1010234
20:00+27св4881100 0.3 1011260